Location: Greenwich
(51.4790°N, 0.0090°E)
Time: 16:20:52
(UTC+01:00)

ISS - Visible Passes

Search period start: 01 October 2022 00:00
Search period end: 11 October 2022 00:00
Orbit: 413 x 417 km, 51.6° (Epoch: 01 October)

Date Brightness Start Highest point End Pass type
(mag) Time Alt. Az. Time Alt. Az. Time Alt. Az.
01 Oct -2.9 19:29:34 10° W 19:32:48 45° SSW 19:35:58 10° SE visible
01 Oct -1.0 21:07:35 10° WSW 21:08:51 12° SW 21:08:51 12° SW visible
02 Oct -1.4 20:17:58 10° W 20:20:17 17° SW 20:22:08 12° S visible
03 Oct -1.8 19:28:48 10° W 19:31:37 25° SSW 19:34:25 10° SSE visible
05 Oct -0.9 19:28:35 10° WSW 19:30:10 13° SW 19:31:44 10° SSW visible
